Time,TemperatureF,DewpointF,PressureIn,WindDirection,WindDirectionDegrees,WindSpeedMPH,WindSpeedGustMPH,Humidity,HourlyPrecipIn,Conditions,Clouds,dailyrainin,SoftwareType,DateUTC
2013-11-13 00:42:00,32.0,-99.9,-100.00,SSE,157,0.0,5.0,-999,-99.99,,,-99.99,,2013-11-13 06:42:00,
2013-11-13 02:20:00,34.0,-99.9,-100.00,NNE,22,2.0,3.0,-999,-99.99,,,-99.99,,2013-11-13 08:20:00,
2013-11-13 02:42:00,33.0,-99.9,-100.00,East,85,4.0,9.0,-999,-99.99,,,-99.99,,2013-11-13 08:42:00,
2013-11-13 02:52:00,33.0,-99.9,-100.00,East,85,4.0,9.0,-999,-99.99,,,-99.99,,2013-11-13 08:52:00,
2013-11-13 03:12:00,34.0,-99.9,-100.00,NNE,22,2.0,3.0,-999,-99.99,,,-99.99,,2013-11-13 09:12:00,
2013-11-13 03:53:00,32.0,-99.9,-100.00,West,259,6.0,6.0,-999,-99.99,,,-99.99,,2013-11-13 09:53:00,
2013-11-13 04:03:00,32.0,-99.9,-100.00,West,259,6.0,6.0,-999,-99.99,,,-99.99,,2013-11-13 10:03:00,
2013-11-13 04:13:00,32.0,-99.9,-100.00,West,259,6.0,6.0,-999,-99.99,,,-99.99,,2013-11-13 10:13:00,
2013-11-13 05:42:00,32.0,-99.9,-100.00,ENE,63,8.0,9.0,-999,-99.99,,,-99.99,,2013-11-13 11:42:00,
2013-11-13 06:50:00,33.0,-99.9,-100.00,East,79,8.0,11.0,-999,-99.99,,,-99.99,,2013-11-13 12:50:00,
2013-11-13 07:42:00,33.0,-99.9,-100.00,East,79,8.0,11.0,-999,-99.99,,,-99.99,,2013-11-13 13:42:00,
2013-11-13 08:50:00,34.0,-99.9,-100.00,West,264,1.0,6.0,-999,-99.99,,,-99.99,,2013-11-13 14:50:00,
2013-11-13 09:43:00,34.0,-99.9,-100.00,West,264,1.0,6.0,-999,-99.99,,,-99.99,,2013-11-13 15:43:00,
2013-11-13 11:42:00,39.0,-99.9,-100.00,NW,322,1.0,3.0,-999,-99.99,,,-99.99,,2013-11-13 17:42:00,
2013-11-13 11:52:00,39.0,-99.9,-100.00,NW,322,1.0,3.0,-999,-99.99,,,-99.99,,2013-11-13 17:52:00,
2013-11-13 13:42:00,49.0,-99.9,-100.00,East,79,3.0,10.0,-999,-99.99,,,-99.99,,2013-11-13 19:42:00,
2013-11-13 13:52:00,49.0,-99.9,-100.00,East,79,3.0,10.0,-999,-99.99,,,-99.99,,2013-11-13 19:52:00,
2013-11-13 15:43:00,57.0,-99.9,-100.00,South,180,5.0,13.0,-999,-99.99,,,-99.99,,2013-11-13 21:43:00,
2013-11-13 15:53:00,57.0,-99.9,-100.00,South,180,5.0,13.0,-999,-99.99,,,-99.99,,2013-11-13 21:53:00,
2013-11-13 17:11:00,54.0,-99.9,-100.00,SSW,195,12.0,12.0,-999,-99.99,,,-99.99,,2013-11-13 23:11:00,
2013-11-13 17:22:00,54.0,-99.9,-100.00,SW,225,8.0,10.0,-999,-99.99,,,-99.99,,2013-11-13 23:22:00,
2013-11-13 17:32:00,54.0,-99.9,-100.00,SW,225,8.0,10.0,-999,-99.99,,,-99.99,,2013-11-13 23:32:00,
2013-11-13 17:50:00,48.0,-99.9,-100.00,South,183,9.0,12.0,-999,-99.99,,,-99.99,,2013-11-13 23:50:00,
2013-11-13 18:42:00,48.0,-99.9,-100.00,South,183,9.0,12.0,-999,-99.99,,,-99.99,,2013-11-14 00:42:00,
2013-11-13 19:22:00,45.0,-99.9,-100.00,South,181,4.0,8.0,-999,-99.99,,,-99.99,,2013-11-14 01:22:00,
2013-11-13 19:42:00,43.0,-99.9,-100.00,SW,233,4.0,6.0,-999,-99.99,,,-99.99,,2013-11-14 01:42:00,
2013-11-13 19:52:00,43.0,-99.9,-100.00,SW,233,4.0,6.0,-999,-99.99,,,-99.99,,2013-11-14 01:52:00,
2013-11-13 21:44:00,41.0,-99.9,-100.00,SSW,205,7.0,13.0,-999,-99.99,,,-99.99,,2013-11-14 03:44:00,
2013-11-13 21:54:00,41.0,-99.9,-100.00,SSW,205,7.0,13.0,-999,-99.99,,,-99.99,,2013-11-14 03:54:00,
2013-11-13 22:00:00,40.0,-99.9,-100.00,SSW,198,5.0,8.0,-999,-99.99,,,-99.99,,2013-11-14 04:00:00,
2013-11-13 22:54:00,40.0,-99.9,-100.00,SSW,198,5.0,8.0,-999,-99.99,,,-99.99,,2013-11-14 04:54:00,
2013-11-13 23:00:00,40.0,-99.9,-100.00,SW,225,5.0,10.0,-999,-99.99,,,-99.99,,2013-11-14 05:00:00,
2013-11-13 23:44:00,40.0,-99.9,-100.00,SSW,208,4.0,10.0,-999,-99.99,,,-99.99,,2013-11-14 05:44:00,
2013-11-13 23:53:00,40.0,-99.9,-100.00,SW,225,5.0,10.0,-999,-99.99,,,-99.99,,2013-11-14 05:53:00,